Regional Weather Roundup
Issued by NWS

Home | Current Version | Previous Version | Graphics & Text | Print | Product List | Glossary On
Versions: 1 2 3 4 5 6 7 8 9 10 11 12 13 14 15 16 17 18 19 20 21 22 23 24 25 26 27 28 29 30 31 32 33 34 35 36 37 38 39 40 41 42 43 44 45 46 47 48 49 50
000
ASUS43 KLOT 270612
RWRIL

ILLINOIS REGIONAL WEATHER ROUNDUP
NATIONAL WEATHER SERVICE CHICAGO/ROMEOVILLE IL
100 AM CDT FRI MAR 27 2015

NOTE: "FAIR" INDICATES FEW OR NO CLOUDS BELOW 12,000 FEET WITH NO
SIGNIFICANT WEATHER AND/OR OBSTRUCTIONS TO VISIBILITY.

* THESE STATIONS ARE NOT UNDER NWS QUALITY CONTROL. THEY ALSO MAY NOT
  REPORT WEATHER SUCH AS PRECIPITATION OR FOG.

ILZ001-002-007-009-015-016-024-270700-
NORTHWEST ILLINOIS

CITY           SKY/WX    TMP DP  RH WIND       PRES   REMARKS
MOLINE         CLOUDY    31  21  66 NW12      30.12F WCI  22
6HR MIN TEMP:  30; 6HR MAX TEMP:  38;

STERLING*      CLOUDY    34  19  55 N9        30.11S WCI  26
SAVANNA*       CLOUDY    33  17  51 N10       30.12S WCI  25
$$

ILZ003-004-008-010-011-017-018-270700-
NORTH CENTRAL ILLINOIS

CITY           SKY/WX    TMP DP  RH WIND       PRES   REMARKS
ROCKFORD       FLURRIES  31  18  58 N10       30.12S WCI  22
6HR MIN TEMP:  31; 6HR MAX TEMP:  36; 6HR PCP: TRACE;

FREEPORT*      CLOUDY    30  20  66 N7        30.13S WCI  23
ROCHELLE*      CLOUDY    31  19  63 N15       30.11R WCI  20
DE KALB*       CLOUDY    29  19  65 N12       30.09S WCI  19
PERU*          CLOUDY    33  26  73 N12       30.10S WCI  24
$$

ILZ005-006-012>014-019>023-270700-
NORTHEAST ILLINOIS

CITY           SKY/WX    TMP DP  RH WIND       PRES   REMARKS
CHICAGO-OHARE  MOCLDY    31  16  54 N9        30.07S WCI  23
6HR MIN TEMP:  31; 6HR MAX TEMP:  37;

CHICAGO-MIDWAY CLOUDY    34  16  47 N14G24    30.07S WCI  25
6HR MIN TEMP:  34; 6HR MAX TEMP:  40; 6HR PCP: TRACE;

AURORA         CLOUDY    32  17  54 N13       30.08S WCI  22
6HR MIN TEMP:  32; 6HR MAX TEMP:  37;

LANSING*       CLOUDY    33  18  54 N7G18     30.06S WCI  27
JOLIET*        CLOUDY    34  19  54 N10       30.08R WCI  26
WAUKEGAN       LGT SNOW  28  25  88 N9        30.08S FOG     WCI  19
6HR MIN TEMP:  28; 6HR MAX TEMP:  35; 6HR PCP: TRACE;

DUPAGE AIRPORT CLOUDY    31  16  54 N9        30.07S WCI  23
6HR MIN TEMP:  31; 6HR MAX TEMP:  37;

KANKAKEE*      CLOUDY    35  24  64 N9        30.06S WCI  28
WHEELING       CLOUDY    31  17  56 N9        30.09F WCI  23
6HR MIN TEMP:  31; 6HR MAX TEMP:  36;

MORRIS*        CLOUDY    33  24  71 N7        30.07R WCI  26
ROMEOVILLE*    CLOUDY    32  19  58 N10       30.07S WCI  24
NORTHERLY ISL    N/A     32  25  76 MISG        N/A
$$

LMZ740>746-270700-
SOUTHERN LAKE MICHIGAN

STATION/POSITION SKY/WX   TEMP    WIND        PRES    VSBY  WAVE
                          AIR SEA DIR/SP/G                  HT/PER
                          (F)     (DEG/KT/KT) (MB)    (MI)  (FT/S)
HARRISON CRIB              33     340/ 21/ 25   N/A
BURNHAM HARBOR             31      10/ 15/ 16   N/A
CALUMET HARBOR             33     330/ 12/ 17 1016.9F
BURNS HARBOR               33     360/ 15/ 21 1018.3S
MICHIGAN CITY              32     320/ 19/ 21   N/A
$$

ILZ025>027-034>036-040-047-049-050-058-095>099-270700-
WEST-CENTRAL ILLINOIS

CITY           SKY/WX    TMP DP  RH WIND       PRES   REMARKS
QUINCY         CLOUDY    34  25  69 N14       30.12R WCI  25
GALESBURG*     FAIR      28  22  79 NW9       30.11F WCI  19
MACOMB*        CLOUDY    31  25  77 N10       30.14S WCI  23
JACKSONVILLE*  CLOUDY    37  27  68 N12       30.10R WCI  29
PITTSFIELD*    CLOUDY    37  26  64 N12G17    30.11S WCI  29
$$

ILZ028>032-037-038-041>044-048-051>054-059>061-270700-
CENTRAL ILLINOIS

CITY           SKY/WX    TMP DP  RH WIND       PRES   REMARKS
PONTIAC        CLOUDY    34  28  80 NW7       30.08S WCI  28
BLOOMINGTON    PTCLDY    32  27  82 N12       30.07S WCI  23
DECATUR        PTCLDY    34  27  75 N10       30.05S WCI  26
PEORIA         PTCLDY    32  23  69 NW5       30.10F WCI  27
6HR MIN TEMP:  32; 6HR MAX TEMP:  46;

LACON*         PTCLDY    30  22  72 CALM      30.09S
LINCOLN*       MOCLDY    34  27  76 N8        30.09S WCI  27
SPRINGFIELD    MOCLDY    35  26  69 N13       30.08F WCI  26
6HR MIN TEMP:  35; 6HR MAX TEMP:  47;

TAYLORVILLE    PTCLDY    34  28  80 N15       30.05S WCI  24
$$

ILZ033-039-045-046-055>057-062-063-270700-
EAST-CENTRAL ILLINOIS

CITY           SKY/WX    TMP DP  RH WIND       PRES   REMARKS
CHAMPAIGN      CLEAR     33  25  72 N16       30.02F WCI  23
DANVILLE*      CLEAR     29  25  87 N6        30.00S WCI  23
RANTOUL*       MOCLDY    33  27  78 N13       30.04S WCI  24
MATTOON        CLEAR     32  27  81 N9        30.01S WCI  24
PARIS*         CLEAR     33  28  80 N5        30.03S WCI  28
$$

ILZ079-100>102-270700-
SOUTHWEST ILLINOIS

CITY           SKY/WX    TMP DP  RH WIND       PRES   REMARKS
ALTON          PTCLDY    40  27  60 N5        30.05S
BELLEVILLE     PTCLDY    38  29  70 NW7       30.03F WCI  33
CAHOKIA*       PTCLDY    36  32  85 CALM      30.04F
SPARTA*        CLEAR     37  29  74 W3        30.05S
$$

ILZ064>066-069>071-074>076-080>082-084>086-088>090-092>094-270700-
SOUTH-CENTRAL ILLINOIS

CITY           SKY/WX    TMP DP  RH WIND       PRES   REMARKS
CARBONDALE     CLEAR     33  31  92 CALM      30.04F
6HR MIN TEMP:  32; 6HR MAX TEMP:  45;

CAIRO*         CLEAR     35  35  97 CALM      30.05S
EFFINGHAM*     CLEAR     37  26  64 NW6       30.03F WCI  32
MARION         CLEAR     34  32  93 CALM      30.05S
MT. VERNON     CLEAR     30  25  80 CALM      30.04S
CENTRALIA*     CLEAR     35  29  80 W5        30.03S WCI  31
SALEM*         CLEAR     38  30  74 CALM      30.03S
METROPOLIS*    CLEAR     33  33 100 CALM      30.04S
$$

ILZ067-068-072-073-078-083-087-091-270700-
SOUTHEAST ILLINOIS

CITY           SKY/WX    TMP DP  RH WIND       PRES   REMARKS
LAWRENCEVILLE  CLEAR     33  31  92 NW3       30.02F
FLORA*         CLEAR     34  30  86 CALM      30.03S
FAIRFIELD*     CLEAR     33  32  95 CALM      30.02S
HARRISBURG*    CLEAR     32  32 100 CALM      30.05S
ROBINSON*      CLEAR     32  32  99 CALM      30.03F
CARMI*         CLEAR     35  35  99 CALM      30.03S
$$

ABBREVIATIONS USED IN REMARKS
   TC - TEMPERATURE IN CELSIUS
  WCI - WIND CHILL INDEX
   HX - HEAT INDEX
  VSB - VISIBILITY
$$




USA.gov is the U.S. government's official web portal to all federal, state and local government web resources and services.